[[{"header":{"parameterUnit":"m.s-1","parameterCategory":2,"la1":30.2992,"la2":30.254,"lo1":-89.0895,"lo2":-89.0443,"dy":0.0025,"dx":0.0025,"nx":19,"ny":19,"refTime":"2026-04-23T03:00:00:Z","depth":"0","parameterNumber":2,"parameterNumberName":"U-component_of_CURRENTS"},"data":[0,0,0,-0.1755,-0.1756,-0.183,-0.1831,-0.1921,-0.1921,0,0,0,0,0,0,0,0,0,0,0,-0.1723,-0.1724,-0.1755,-0.1756,-0.183,-0.1831,-0.192,-0.1921,0,0,0,0,0,0,0,0,0,0,0,-0.1723,-0.1724,-0.1724,-0.1757,-0.183,-0.1831,-0.192,-0.1866,0,0,0,0,0,0,0,0,0,0,-0.1795,-0.176,-0.1724,-0.1724,-0.1757,-0.183,-0.1831,-0.1863,-0.1869,-0.1885,0,-0.1894,0,-0.1912,-0.1927,-0.1927,0,0,0,-0.1758,-0.1754,-0.1782,-0.1724,-0.1758,-0.183,-0.1797,-0.1867,-0.1873,-0.1893,-0.1895,-0.1899,-0.1914,-0.1928,-0.1928,-0.1992,-0.1992,0,0,-0.1753,-0.1732,-0.1777,-0.1786,-0.1773,-0.1795,-0.18,-0.1871,-0.1872,-0.1895,-0.1901,-0.1915,-0.1928,-0.1929,-0.1992,-0.1992,0,0,0,-0.1741,-0.1729,-0.1754,-0.1782,-0.1798,-0.1797,-0.1802,-0.1868,-0.1879,-0.1902,-0.1916,-0.1929,-0.193,-0.1992,-0.1992,-0.1941,0,0,0,-0.1739,-0.1722,-0.1752,-0.174,-0.1796,-0.1833,-0.1798,-0.1874,-0.1883,-0.1916,-0.1929,-0.1931,-0.1992,-0.1992,-0.1943,-0.1923,0,0,0,-0.1721,-0.172,-0.1729,-0.1738,-0.1772,-0.1833,-0.1847,-0.1876,-0.1891,-0.1928,-0.1931,-0.1992,-0.1992,-0.1944,-0.1925,-0.1881,0,0,0,-0.1696,-0.1722,-0.1728,-0.1766,-0.1771,-0.1835,-0.1847,-0.19,-0.1933,-0.1929,-0.1992,-0.1992,-0.1944,-0.1926,-0.1882,-0.1723,-0.1702,0,0,-0.1721,-0.1724,-0.1751,-0.1758,-0.181,-0.1825,-0.186,-0.1908,-0.1936,-0.1969,-0.1971,-0.1942,-0.1925,-0.1881,-0.1731,-0.1709,0,0,0,-0.1754,-0.176,-0.1783,-0.1808,-0.1855,-0.1859,-0.1904,-0.1905,-0.1927,-0.1956,-0.1959,-0.1951,-0.1924,-0.1832,-0.1816,-0.1738,-0.1993,-0.1993,-0.1993,-0.1728,-0.1762,-0.1791,-0.1825,-0.1856,-0.1887,-0.1887,-0.1894,-0.193,-0.1923,-0.1921,-0.1872,-0.1775,-0.176,-0.1683,-0.1935,-0.1935,-0.1935,-0.1935,-0.1732,-0.1736,-0.177,-0.1807,-0.1821,-0.1841,-0.1854,-0.186,-0.1844,-0.1882,-0.1858,-0.1799,-0.1738,-0.1663,-0.1932,-0.1932,-0.1933,-0.1933,-0.1933,-0.1687,-0.1692,-0.1721,-0.1751,-0.1765,-0.1798,-0.1782,-0.1804,-0.1801,-0.1785,-0.1687,-0.1686,-0.1607,-0.1774,-0.1773,-0.1773,-0.1773,-0.1773,-0.1772,-0.1616,-0.1648,-0.1648,-0.1692,-0.1699,-0.1717,-0.174,-0.1717,-0.1649,-0.1621,-0.162,-0.1569,-0.1823,-0.1815,-0.1768,-0.1769,-0.1769,-0.177,-0.177,-0.1541,-0.156,-0.1558,-0.1566,-0.1598,-0.1568,-0.1623,-0.1512,-0.1482,-0.1397,-0.131,-0.1522,-0.1519,-0.1532,-0.1517,-0.1397,-0.1397,-0.1397,-0.1397,-0.1469,-0.1487,-0.1463,-0.1464,-0.1482,-0.1493,-0.134,-0.1253,-0.1147,-0.1061,-0.1116,-0.1105,-0.1124,-0.1101,-0.1123,-0.1102,-0.0879,-0.0879,-0.0878,-0.1399,-0.1409,-0.1365,-0.1397,-0.1426,-0.1385,-0.1177,-0.0935,-0.0805,-0.0858,-0.1039,-0.1061,-0.1055,-0.109,-0.1067,-0.1105,-0.1077,0,0]},{"header":{"parameterUnit":"m.s-1","parameterCategory":2,"la1":30.2992,"la2":30.254,"lo1":-89.0895,"lo2":-89.0443,"dy":0.0025,"dx":0.0025,"nx":19,"ny":19,"refTime":"2026-04-23T03:00:00:Z","depth":"0","parameterNumber":3,"parameterNumberName":"V-component_of_CURRENTS"},"data":[0,0,0,-0.0379,-0.0378,-0.0334,-0.0334,-0.0218,-0.0217,0,0,0,0,0,0,0,0,0,0,0,-0.0391,-0.0391,-0.0379,-0.0378,-0.0334,-0.0334,-0.0218,-0.0217,0,0,0,0,0,0,0,0,0,0,0,-0.0391,-0.0391,-0.0391,-0.0378,-0.0334,-0.0334,-0.0219,-0.0263,0,0,0,0,0,0,0,0,0,0,-0.0312,-0.0338,-0.0391,-0.0391,-0.0378,-0.0334,-0.0334,-0.0266,-0.026,-0.0226,0,-0.0228,0,-0.0226,-0.021,-0.0209,0,0,0,-0.0363,-0.0343,-0.0333,-0.0391,-0.0378,-0.0334,-0.035,-0.0263,-0.0257,-0.0219,-0.0227,-0.0223,-0.0225,-0.0209,-0.0208,-0.0121,-0.0121,0,0,-0.0366,-0.0375,-0.0337,-0.0329,-0.0376,-0.0351,-0.0349,-0.026,-0.0255,-0.0226,-0.022,-0.0223,-0.0208,-0.0207,-0.0121,-0.0121,0,0,0,-0.0383,-0.0377,-0.037,-0.0334,-0.0334,-0.035,-0.0347,-0.0258,-0.0257,-0.0219,-0.0221,-0.0207,-0.0206,-0.0121,-0.0121,-0.0183,0,0,0,-0.0384,-0.0388,-0.0372,-0.0376,-0.0336,-0.0304,-0.0348,-0.0263,-0.0254,-0.0222,-0.0207,-0.0205,-0.0121,-0.0121,-0.0182,-0.0195,0,0,0,-0.0391,-0.0389,-0.0388,-0.0377,-0.0365,-0.0306,-0.0299,-0.0261,-0.0255,-0.0209,-0.0205,-0.0121,-0.0121,-0.018,-0.0193,-0.014,0,0,0,-0.0396,-0.0419,-0.0388,-0.0411,-0.0366,-0.0356,-0.03,-0.0282,-0.025,-0.0207,-0.0121,-0.0121,-0.018,-0.0192,-0.014,-0.0038,-0.0031,0,0,-0.0434,-0.0424,-0.0439,-0.0411,-0.0423,-0.0361,-0.0348,-0.0284,-0.0229,-0.0144,-0.0142,-0.0182,-0.0193,-0.014,-0.0025,-0.0018,0,0,0,-0.0457,-0.0465,-0.0465,-0.046,-0.0437,-0.0393,-0.0335,-0.0292,-0.022,-0.0211,-0.016,-0.0164,-0.0128,-0.0066,-0.0061,0.0059,-0.012,-0.012,-0.012,-0.0506,-0.0498,-0.0516,-0.0496,-0.0478,-0.0411,-0.0366,-0.0286,-0.0246,-0.022,-0.0199,-0.0179,-0.0116,-0.011,0.001,-0.0187,-0.0187,-0.0188,-0.0188,-0.0562,-0.0573,-0.0545,-0.0562,-0.0506,-0.0478,-0.0375,-0.0334,-0.0235,-0.0223,-0.0185,-0.0117,-0.0107,0.0019,-0.0191,-0.0191,-0.019,-0.019,-0.019,-0.0595,-0.06,-0.0604,-0.0607,-0.0575,-0.0513,-0.0436,-0.037,-0.0276,-0.0248,-0.0115,-0.0112,-0.0009,-0.0214,-0.0214,-0.0214,-0.0214,-0.0214,-0.0214,-0.0628,-0.0631,-0.0656,-0.065,-0.0644,-0.0594,-0.0469,-0.0378,-0.0226,-0.0148,-0.0146,0.0027,-0.0185,-0.0193,-0.0211,-0.0212,-0.0212,-0.0212,-0.0212,-0.0674,-0.0675,-0.0713,-0.0721,-0.0689,-0.0546,-0.0472,-0.0218,-0.0136,-0.0027,0.0145,-0.0067,-0.0018,-0.0021,-0.0022,0.0005,0.0005,0.0005,0.0005,-0.07,-0.0706,-0.0747,-0.0755,-0.0707,-0.053,-0.0187,0.0048,0.0231,0.0323,0.0299,0.032,0.0306,0.0374,0.0363,0.0369,0.0496,0.0496,0.0497,-0.0723,-0.0736,-0.076,-0.0764,-0.0706,-0.0432,0.0045,0.0499,0.06,0.0524,0.0444,0.0423,0.0457,0.0425,0.0532,0.0506,0.0517,0,0]}],[{"header":{"parameterUnit":"m.s-1","parameterCategory":2,"la1":30.2992,"la2":30.254,"lo1":-89.0895,"lo2":-89.0443,"dy":0.0025,"dx":0.0025,"nx":19,"ny":19,"refTime":"2026-04-23T03:00:00:Z","depth":"2","parameterNumber":2,"parameterNumberName":"U-component_of_CURRENTS"},"data":[0,0,0,-0.154,-0.1541,-0.1596,-0.1596,-0.1652,-0.1652,0,0,0,0,0,0,0,0,0,0,0,-0.1517,-0.1517,-0.154,-0.1541,-0.1596,-0.1596,-0.1652,-0.1652,0,0,0,0,0,0,0,0,0,0,0,-0.1517,-0.1517,-0.1517,-0.1541,-0.1596,-0.1596,-0.1652,-0.1614,0,0,0,0,0,0,0,0,0,0,-0.1562,-0.1538,-0.1517,-0.1517,-0.1542,-0.1596,-0.1596,-0.1612,-0.1616,-0.1623,0,-0.163,0,-0.1645,-0.1656,-0.1656,0,0,0,-0.1541,-0.1535,-0.1555,-0.1517,-0.1542,-0.1596,-0.1571,-0.1614,-0.1619,-0.1628,-0.1631,-0.1634,-0.1645,-0.1656,-0.1656,-0.1698,-0.1698,0,0,-0.1538,-0.1522,-0.1552,-0.1558,-0.1555,-0.1569,-0.1573,-0.1617,-0.1617,-0.1631,-0.1635,-0.1646,-0.1656,-0.1657,-0.1698,-0.1698,0,0,0,-0.1529,-0.1519,-0.1539,-0.1556,-0.1568,-0.1571,-0.1575,-0.1615,-0.1624,-0.1636,-0.1647,-0.1657,-0.1657,-0.1698,-0.1698,-0.1669,0,0,0,-0.1527,-0.1515,-0.1538,-0.1528,-0.1567,-0.1594,-0.1572,-0.1621,-0.1626,-0.1647,-0.1657,-0.1658,-0.1698,-0.1698,-0.1669,-0.1655,0,0,0,-0.1514,-0.1514,-0.1521,-0.1528,-0.1553,-0.1593,-0.1604,-0.1622,-0.1633,-0.1656,-0.1658,-0.1698,-0.1698,-0.167,-0.1656,-0.1614,0,0,0,-0.1495,-0.1514,-0.152,-0.1547,-0.1552,-0.1599,-0.1604,-0.1643,-0.1665,-0.1657,-0.1698,-0.1698,-0.167,-0.1657,-0.1615,-0.1464,-0.1446,0,0,-0.1512,-0.1515,-0.1534,-0.1542,-0.1579,-0.1592,-0.1618,-0.1649,-0.1666,-0.1682,-0.1683,-0.1669,-0.1656,-0.1614,-0.1475,-0.1456,0,0,0,-0.1536,-0.154,-0.1557,-0.1576,-0.1612,-0.1618,-0.1649,-0.1649,-0.1663,-0.168,-0.1681,-0.1674,-0.1648,-0.1561,-0.1546,-0.1699,-0.1699,-0.1699,-0.1699,-0.1514,-0.154,-0.1561,-0.1588,-0.1613,-0.1639,-0.1639,-0.1642,-0.1667,-0.1664,-0.1659,-0.162,-0.1528,-0.1515,-0.1671,-0.167,-0.167,-0.167,-0.167,-0.1513,-0.1512,-0.1544,-0.1572,-0.1588,-0.1606,-0.1616,-0.1622,-0.1605,-0.1636,-0.1612,-0.1546,-0.1497,-0.1668,-0.1668,-0.1669,-0.1669,-0.1669,-0.1669,-0.1473,-0.1473,-0.1501,-0.1525,-0.1544,-0.1576,-0.1559,-0.1581,-0.1577,-0.1563,-0.146,-0.1458,-0.1583,-0.1551,-0.155,-0.155,-0.155,-0.155,-0.155,-0.1407,-0.1435,-0.1437,-0.1475,-0.1485,-0.1503,-0.1527,-0.1504,-0.1441,-0.1413,-0.1412,-0.158,-0.1584,-0.1576,-0.1546,-0.1546,-0.1547,-0.1547,-0.1548,-0.1332,-0.1353,-0.1348,-0.1359,-0.1384,-0.1332,-0.1406,-0.1304,-0.128,-0.1202,-0.1312,-0.1319,-0.1308,-0.1318,-0.1305,-0.1206,-0.1206,-0.1206,-0.1206,-0.1263,-0.128,-0.1253,-0.1249,-0.125,-0.1245,-0.1097,-0.104,-0.1035,-0.1005,-0.1014,-0.101,-0.1027,-0.1003,-0.1021,-0.1003,-0.0825,-0.0824,-0.0824,-0.1195,-0.1203,-0.1155,-0.1173,-0.1177,-0.1105,-0.0907,-0.0741,-0.0682,-0.0815,-0.1013,-0.1168,-0.1187,-0.1204,-0.119,-0.121,-0.119,0,0]},{"header":{"parameterUnit":"m.s-1","parameterCategory":2,"la1":30.2992,"la2":30.254,"lo1":-89.0895,"lo2":-89.0443,"dy":0.0025,"dx":0.0025,"nx":19,"ny":19,"refTime":"2026-04-23T03:00:00:Z","depth":"2","parameterNumber":3,"parameterNumberName":"V-component_of_CURRENTS"},"data":[0,0,0,-0.038,-0.038,-0.0347,-0.0347,-0.0251,-0.025,0,0,0,0,0,0,0,0,0,0,0,-0.0388,-0.0388,-0.038,-0.038,-0.0347,-0.0347,-0.0251,-0.025,0,0,0,0,0,0,0,0,0,0,0,-0.0388,-0.0388,-0.0388,-0.038,-0.0347,-0.0347,-0.0251,-0.0286,0,0,0,0,0,0,0,0,0,0,-0.0323,-0.0344,-0.0388,-0.0388,-0.038,-0.0347,-0.0347,-0.0288,-0.0284,-0.0254,0,-0.0257,0,-0.0257,-0.0243,-0.0243,0,0,0,-0.0366,-0.0348,-0.0341,-0.0388,-0.0379,-0.0347,-0.0358,-0.0286,-0.0281,-0.0248,-0.0256,-0.0253,-0.0256,-0.0243,-0.0242,-0.0166,-0.0166,0,0,-0.0368,-0.0376,-0.0345,-0.0338,-0.038,-0.0359,-0.0357,-0.0283,-0.028,-0.0256,-0.0251,-0.0254,-0.0242,-0.0241,-0.0166,-0.0166,0,0,0,-0.0382,-0.0377,-0.0372,-0.0342,-0.0344,-0.0359,-0.0356,-0.0283,-0.0282,-0.025,-0.0253,-0.0242,-0.024,-0.0166,-0.0166,-0.0227,0,0,0,-0.0383,-0.0386,-0.0374,-0.0377,-0.0346,-0.0321,-0.0357,-0.0287,-0.0279,-0.0254,-0.0242,-0.024,-0.0166,-0.0166,-0.0225,-0.0243,0,0,0,-0.0388,-0.0387,-0.0387,-0.0378,-0.037,-0.0323,-0.0317,-0.0286,-0.0281,-0.0243,-0.0239,-0.0166,-0.0166,-0.0224,-0.0241,-0.0201,0,0,0,-0.0391,-0.0414,-0.0387,-0.041,-0.0371,-0.0366,-0.0318,-0.0305,-0.0279,-0.0241,-0.0166,-0.0166,-0.0224,-0.024,-0.02,-0.0128,-0.0124,0,0,-0.0428,-0.0419,-0.0434,-0.0409,-0.0425,-0.0369,-0.0362,-0.0308,-0.0259,-0.0184,-0.0183,-0.0226,-0.0241,-0.0201,-0.0112,-0.0108,0,0,0,-0.045,-0.0461,-0.0461,-0.0461,-0.0441,-0.0406,-0.0354,-0.0316,-0.0253,-0.0244,-0.0203,-0.0209,-0.0182,-0.0137,-0.0135,-0.0164,-0.0165,-0.0165,-0.0165,-0.0501,-0.0495,-0.0516,-0.05,-0.0485,-0.0426,-0.0388,-0.0317,-0.0278,-0.0255,-0.0243,-0.0231,-0.0185,-0.0182,-0.0227,-0.0227,-0.0227,-0.0228,-0.0228,-0.0561,-0.0576,-0.055,-0.0571,-0.0521,-0.0499,-0.0405,-0.0367,-0.0281,-0.0264,-0.0235,-0.0184,-0.0182,-0.0232,-0.0231,-0.0231,-0.023,-0.023,-0.023,-0.0598,-0.0605,-0.0611,-0.0621,-0.0598,-0.0541,-0.048,-0.0414,-0.0326,-0.0304,-0.0199,-0.0196,-0.0254,-0.0277,-0.0277,-0.0277,-0.0276,-0.0276,-0.0276,-0.0637,-0.0641,-0.067,-0.0671,-0.067,-0.0631,-0.0521,-0.0445,-0.0312,-0.0239,-0.0237,-0.0246,-0.0244,-0.0254,-0.0275,-0.0275,-0.0276,-0.0276,-0.0276,-0.069,-0.069,-0.0735,-0.0748,-0.0736,-0.0704,-0.0581,-0.0373,-0.0273,-0.0184,-0.0176,-0.0178,-0.0137,-0.0138,-0.0142,-0.0133,-0.0133,-0.0133,-0.0133,-0.0721,-0.0726,-0.0785,-0.081,-0.0794,-0.0736,-0.06,-0.039,-0.0186,-0.0103,-0.0105,-0.0103,-0.0109,-0.0066,-0.0068,-0.0071,-0.0044,-0.0044,-0.0044,-0.0751,-0.0766,-0.0812,-0.0837,-0.0824,-0.076,-0.066,-0.048,-0.0196,-0.0046,-0.0146,-0.0116,-0.0118,-0.0125,-0.0061,-0.0065,-0.007,0,0]}],[{"header":{"parameterUnit":"m.s-1","parameterCategory":2,"la1":30.2992,"la2":30.254,"lo1":-89.0895,"lo2":-89.0443,"dy":0.0025,"dx":0.0025,"nx":19,"ny":19,"refTime":"2026-04-23T03:00:00:Z","depth":"4","parameterNumber":2,"parameterNumberName":"U-component_of_CURRENTS"},"data":[0,0,0,-0.1134,-0.1135,-0.1203,-0.1204,-0.1199,-0.1198,0,0,0,0,0,0,0,0,0,0,0,-0.1112,-0.1113,-0.1133,-0.1135,-0.1203,-0.1204,-0.1199,-0.1198,0,0,0,0,0,0,0,0,0,0,0,-0.1112,-0.1113,-0.1113,-0.1135,-0.1203,-0.1204,-0.1199,-0.117,0,0,0,0,0,0,0,0,0,0,-0.1115,-0.1111,-0.1112,-0.1113,-0.1136,-0.1203,-0.1204,-0.1169,-0.1171,-0.1142,0,-0.116,0,-0.1177,-0.1196,-0.1196,0,0,0,-0.1133,-0.111,-0.1126,-0.1114,-0.1137,-0.1203,-0.1172,-0.1171,-0.1174,-0.1144,-0.116,-0.1161,-0.1177,-0.1196,-0.1196,-0.1199,-0.1199,0,0,-0.113,-0.1123,-0.1125,-0.1128,-0.1162,-0.117,-0.1174,-0.1174,-0.1178,-0.116,-0.1161,-0.1177,-0.1196,-0.1195,-0.1198,-0.1199,0,0,0,-0.112,-0.112,-0.1138,-0.1127,-0.1146,-0.1172,-0.1177,-0.1179,-0.1184,-0.1161,-0.1177,-0.1195,-0.1195,-0.1198,-0.1198,-0.1228,0,0,0,-0.1118,-0.1115,-0.1137,-0.1133,-0.1147,-0.1176,-0.1182,-0.1185,-0.1185,-0.1177,-0.1195,-0.1195,-0.1198,-0.1198,-0.1226,-0.1222,0,0,0,-0.1108,-0.1114,-0.1124,-0.1133,-0.1163,-0.1177,-0.1184,-0.1186,-0.1194,-0.1196,-0.1195,-0.1197,-0.1198,-0.1225,-0.122,-0.1187,0,0,0,-0.1094,-0.111,-0.1124,-0.1147,-0.1162,-0.1199,-0.1184,-0.1211,-0.1217,-0.1195,-0.1198,-0.1198,-0.1225,-0.1219,-0.1187,-0.1022,0,0,0,-0.1102,-0.1111,-0.1123,-0.1138,-0.1169,-0.1189,-0.1219,-0.1223,-0.1214,-0.119,-0.1191,-0.1227,-0.122,-0.1187,-0.1064,0,0,0,0,-0.1118,-0.1126,-0.1139,-0.1164,-0.1193,-0.122,-0.1235,-0.1238,-0.1244,-0.1222,-0.1232,-0.1227,-0.1205,-0.1109,-0.1202,-0.1202,-0.1201,-0.1201,-0.1201,-0.1106,-0.1126,-0.1147,-0.1176,-0.1203,-0.1241,-0.1256,-0.126,-0.1257,-0.127,-0.1256,-0.1256,-0.116,-0.127,-0.1271,-0.1271,-0.1271,-0.1271,-0.1271,-0.1099,-0.1099,-0.1145,-0.1174,-0.1212,-0.1244,-0.1269,-0.128,-0.1273,-0.1285,-0.1262,-0.1155,-0.1274,-0.1273,-0.1273,-0.1273,-0.1272,-0.1272,-0.1272,-0.1065,-0.1065,-0.1106,-0.1149,-0.1198,-0.1246,-0.1245,-0.1283,-0.1283,-0.1279,-0.1146,-0.1256,-0.1244,-0.1266,-0.1266,-0.1265,-0.1265,-0.1265,-0.1265,-0.0997,-0.1036,-0.1057,-0.1118,-0.1149,-0.1189,-0.1235,-0.1214,-0.1235,-0.1143,-0.1277,-0.1253,-0.1254,-0.1243,-0.1263,-0.1263,-0.1264,-0.1264,-0.1264,-0.0917,-0.0954,-0.0969,-0.1002,-0.1056,-0.1069,-0.115,-0.1078,-0.1034,-0.0967,-0.1052,-0.1063,-0.1023,-0.1028,-0.1008,-0.0959,-0.0957,-0.0955,0,-0.0852,-0.0874,-0.0878,-0.0892,-0.0892,-0.0976,-0.0883,-0.0884,-0.0887,-0.0858,-0.1024,-0.1123,-0.1129,-0.1088,-0.1089,-0.1067,0,0,0,-0.0789,-0.0804,-0.0773,-0.0804,-0.0801,-0.0786,-0.0844,-0.0786,-0.0917,-0.0818,-0.0902,-0.0916,-0.1136,-0.1256,-0.122,-0.122,-0.12,0,0]},{"header":{"parameterUnit":"m.s-1","parameterCategory":2,"la1":30.2992,"la2":30.254,"lo1":-89.0895,"lo2":-89.0443,"dy":0.0025,"dx":0.0025,"nx":19,"ny":19,"refTime":"2026-04-23T03:00:00:Z","depth":"4","parameterNumber":3,"parameterNumberName":"V-component_of_CURRENTS"},"data":[0,0,0,-0.0238,-0.0238,-0.0228,-0.0227,-0.0153,-0.0153,0,0,0,0,0,0,0,0,0,0,0,-0.0239,-0.0239,-0.0238,-0.0238,-0.0228,-0.0227,-0.0153,-0.0153,0,0,0,0,0,0,0,0,0,0,0,-0.0239,-0.0239,-0.0239,-0.0238,-0.0228,-0.0227,-0.0154,-0.0173,0,0,0,0,0,0,0,0,0,0,-0.019,-0.0207,-0.0239,-0.0239,-0.0238,-0.0228,-0.0227,-0.0175,-0.0172,-0.0144,0,-0.0151,0,-0.0155,-0.0147,-0.0147,0,0,0,-0.0225,-0.0209,-0.0206,-0.0239,-0.0238,-0.0228,-0.0229,-0.0174,-0.0171,-0.014,-0.0151,-0.0148,-0.0154,-0.0147,-0.0146,-0.0085,-0.0085,0,0,-0.0226,-0.0232,-0.0209,-0.0205,-0.0245,-0.0229,-0.0229,-0.0172,-0.0172,-0.015,-0.0147,-0.0153,-0.0146,-0.0146,-0.0085,-0.0085,0,0,0,-0.0236,-0.0233,-0.0232,-0.0207,-0.0213,-0.0229,-0.0229,-0.0174,-0.0174,-0.0146,-0.0152,-0.0146,-0.0145,-0.0085,-0.0085,-0.0148,0,0,0,-0.0236,-0.0239,-0.0233,-0.0235,-0.0215,-0.0203,-0.0231,-0.0178,-0.0172,-0.0153,-0.0146,-0.0144,-0.0085,-0.0085,-0.0147,-0.0171,0,0,0,-0.0237,-0.0239,-0.0242,-0.0236,-0.0238,-0.0204,-0.0201,-0.0177,-0.0176,-0.0147,-0.0144,-0.0085,-0.0085,-0.0146,-0.0168,-0.0146,0,0,0,-0.0238,-0.0258,-0.0242,-0.0263,-0.0238,-0.0238,-0.0202,-0.0194,-0.0174,-0.0145,-0.0085,-0.0085,-0.0145,-0.0167,-0.0145,-0.0148,0,0,0,-0.0267,-0.0262,-0.0275,-0.026,-0.0279,-0.0238,-0.0239,-0.0199,-0.0157,-0.0097,-0.0096,-0.0147,-0.0168,-0.0146,-0.0135,0,0,0,0,-0.0285,-0.0298,-0.03,-0.0307,-0.0293,-0.0278,-0.0238,-0.0208,-0.0164,-0.0146,-0.0125,-0.0135,-0.012,-0.0118,-0.0084,-0.0084,-0.0084,-0.0084,-0.0084,-0.0331,-0.0328,-0.0351,-0.0346,-0.0339,-0.03,-0.0276,-0.0223,-0.0185,-0.0171,-0.0171,-0.0176,-0.0176,-0.0153,-0.0153,-0.0154,-0.0154,-0.0154,-0.0154,-0.0384,-0.0401,-0.0391,-0.0418,-0.039,-0.0382,-0.0312,-0.028,-0.022,-0.0199,-0.018,-0.0166,-0.016,-0.0159,-0.0158,-0.0157,-0.0157,-0.0156,-0.0156,-0.0419,-0.0427,-0.0444,-0.0471,-0.0472,-0.0435,-0.0401,-0.0347,-0.0274,-0.0261,-0.0215,-0.0197,-0.0207,-0.0241,-0.0241,-0.0242,-0.0242,-0.0242,-0.0242,-0.0448,-0.0462,-0.0503,-0.0525,-0.0541,-0.0527,-0.0453,-0.0399,-0.0324,-0.0273,-0.0267,-0.0204,-0.0201,-0.021,-0.0242,-0.0242,-0.0242,-0.0242,-0.0242,-0.049,-0.0499,-0.0558,-0.0588,-0.0613,-0.059,-0.0527,-0.04,-0.0339,-0.0275,-0.0258,-0.0257,-0.0223,-0.0219,-0.0228,-0.0266,-0.0267,-0.0267,0,-0.0512,-0.0523,-0.0604,-0.0652,-0.0663,-0.0624,-0.053,-0.0444,-0.0344,-0.0352,-0.0344,-0.0332,-0.0328,-0.0297,-0.0293,-0.0307,0,0,0,-0.0536,-0.056,-0.062,-0.0673,-0.0689,-0.0575,-0.0499,-0.0453,-0.037,-0.0289,-0.027,-0.0269,-0.0268,-0.0243,-0.0187,-0.0184,-0.0194,0,0]}]]